Terminal Aerodrome Forecast
Issued by NWS

Home | Current Version | Previous Version | Text Only | Print | Product List | Glossary On
Versions: 1 2 3 4 5 6 7 8 9 10 11 12 13 14 15 16 17 18 19 20 21 22 23 24 25 26 27 28
000
FTUS44 KOUN 260720 AAA
TAFLAW
TAF AMD
KLAW 260720Z 2607/2706 18002KT 1/4SM FG VV001
     FM261300 18004KT 3SM BR FEW002 SCT250
     FM261500 16013KT P6SM BKN030
      TEMPO 2621/2701 5SM -TSRA OVC015CB
     FM270100 17012KT P6SM BKN030
      TEMPO 2701/2704 6SM -TSRA OVC015CB=

USA.gov is the U.S. government's official web portal to all federal, state and local government web resources and services.